DateTimeUTC,F1_A11,F1_S11,BsB_S11,BsG_S11,BsR_S11,BbsB_S11,BbsG_S11,BbsR_S11,BaB_A11,BaG_A11,BaR_A11,Tu_S11,T_S11,Uu_S11,U_S11,P_S11,T1_A11
2021-05-27T15:00:00Z,00000200,20000000,,,,,,,0000.56,0000.80,0000.47,20.2,26.4,05.4,03.7,0679.8,31.2
2021-05-27T15:01:00Z,00000200,20000000,,,,,,,0000.15,-000.22,0000.57,20.2,26.4,05.4,03.7,0679.8,31.1
2021-05-27T15:02:00Z,00000200,20000000,,,,,,,0000.51,0000.25,0000.17,20.2,26.4,05.6,03.8,0679.8,31.1
2021-05-27T15:03:00Z,00000200,60000000,,,,,,,0000.05,0000.20,-000.35,20.2,26.4,05.7,03.9,0679.8,31.1
2021-05-27T15:04:00Z,00000200,40000000,0001.03,0000.92,0000.65,0000.46,-000.18,0000.49,0000.11,0000.22,-000.23,20.3,26.3,05.6,03.9,0680.7,31.1
2021-05-27T15:05:00Z,00000200,00000000,0002.31,0000.84,0000.63,-000.18,0000.46,0000.43,0000.57,0000.62,0000.65,20.3,26.2,05.5,03.9,0680.8,31.1
2021-05-27T15:06:00Z,00000200,00000000,0001.82,0000.77,0000.65,0000.63,0000.17,0000.25,0000.51,0000.11,0000.66,20.3,26.2,05.6,03.9,0680.8,31.1
2021-05-27T15:07:00Z,00000200,00000000,0002.11,0000.93,0000.18,0000.39,0000.25,0000.11,0000.41,0000.42,-000.07,20.3,26.2,05.6,04.0,0680.7,31.1
2021-05-27T15:08:00Z,00000200,00000000,0001.93,0000.83,0000.56,0000.44,0000.19,0000.09,0000.22,0000.21,0000.63,20.3,26.2,05.7,04.0,0680.7,31.1
2021-05-27T15:09:00Z,00000200,00000000,0001.32,0001.00,0000.58,0000.39,0000.03,0000.07,-000.11,-000.20,-000.26,20.3,26.2,05.6,03.9,0680.7,31.1
2021-05-27T15:10:00Z,00000200,00000000,0001.73,0000.91,0000.30,-000.15,0000.26,0000.08,0001.18,0000.90,0000.73,20.3,26.2,05.7,03.9,0680.7,31.1
2021-05-27T15:11:00Z,00000200,00000000,0001.57,0001.18,0000.48,0000.35,0000.31,0000.10,-000.66,-000.26,-000.43,20.3,26.2,05.6,03.9,0680.7,31.1
2021-05-27T15:12:00Z,00000200,00000000,0000.94,0001.03,0000.51,0000.14,0000.26,0000.15,0000.34,0000.49,0000.04,20.3,26.2,05.4,03.8,0680.8,31.1
2021-05-27T15:13:00Z,00000200,00000000,0001.60,0000.96,0000.21,0000.20,0000.12,0000.27,0000.41,0000.32,0000.42,20.3,26.2,05.3,03.7,0680.8,31.1
2021-05-27T15:14:00Z,00000200,00000000,0001.47,0000.87,0000.58,0000.09,0000.08,0000.19,0000.71,0000.88,0000.69,20.3,26.2,05.6,03.9,0680.9,31.1
2021-05-27T15:15:00Z,00000200,00000000,0001.00,0000.75,0000.19,0000.29,0000.11,0000.36,0000.31,0000.12,-000.09,20.3,26.2,05.8,04.0,0680.9,31.1
2021-05-27T15:16:00Z,00000200,00000000,0001.72,0001.05,0000.49,0000.18,0000.01,0000.15,0000.70,0000.42,0000.50,20.3,26.2,05.6,03.9,0681.0,31.1
2021-05-27T15:17:00Z,00000200,00000000,0000.63,0000.77,0000.40,-000.35,0000.04,0000.12,0000.32,0000.87,0000.45,20.3,26.2,05.7,04.0,0681.0,31.1
2021-05-27T15:18:00Z,00000200,00000000,0001.37,0000.79,0000.33,-000.15,-000.02,0000.44,0000.51,0000.03,0000.23,20.3,26.2,05.6,04.0,0680.9,31.1
2021-05-27T15:19:00Z,00000200,00000000,0000.94,0000.64,0000.37,0000.48,0000.31,0000.18,0000.59,0000.32,0000.59,20.3,26.2,05.7,04.0,0680.9,31.1
2021-05-27T15:20:00Z,00000200,00000000,0001.02,0001.01,0000.42,-000.04,0000.17,0000.31,-000.11,0000.09,-000.05,20.3,26.2,05.6,03.9,0680.9,31.1
2021-05-27T15:21:00Z,00000200,00000000,0001.45,0001.14,0000.74,0000.41,0000.16,0000.18,0000.16,-000.20,-000.49,20.3,26.2,05.7,04.0,0680.8,31.1
2021-05-27T15:22:00Z,00000200,00000000,0001.72,0001.07,0000.75,-000.13,0000.05,0000.10,0000.53,0000.50,0000.63,20.3,26.2,05.5,03.8,0680.8,31.1
2021-05-27T15:23:00Z,00000200,00000000,0000.89,0000.84,0000.33,0000.40,0000.12,-000.18,0000.24,0000.60,0000.51,20.3,26.2,05.5,03.9,0680.7,31.1
2021-05-27T15:24:00Z,00000200,00000000,0001.87,0001.21,0000.29,0000.41,-000.09,0000.30,0000.19,-000.01,0000.06,20.3,26.2,05.5,03.9,0680.6,31.1
2021-05-27T15:25:00Z,00000200,00000000,0000.62,0001.05,0000.39,0000.03,0000.10,0000.39,0000.82,0000.32,0000.07,20.3,26.2,05.5,03.8,0680.6,31.1
2021-05-27T15:26:00Z,00000200,00000000,0001.85,0000.74,0000.63,0000.62,0000.37,0000.42,-000.28,0000.32,-000.18,20.3,26.2,05.4,03.8,0680.5,31.1
2021-05-27T15:27:00Z,00000200,00000000,0001.55,0001.07,0000.79,0000.24,-000.11,0000.29,0000.87,0000.40,0000.81,20.3,26.2,05.4,03.8,0680.5,31.1
2021-05-27T15:28:00Z,00000200,00000000,0001.08,0000.91,0000.33,-000.04,0000.30,0000.37,-000.12,0000.18,0000.10,20.3,26.2,05.4,03.8,0680.6,31.1
2021-05-27T15:29:00Z,00000200,00000000,0001.15,0000.67,0000.44,-000.05,0000.34,0000.15,-000.03,-000.03,-000.55,20.3,26.2,05.3,03.7,0680.6,31.1
2021-05-27T15:30:00Z,00000200,00000000,0001.02,0000.93,0000.33,0000.58,0000.06,0000.12,0000.32,0000.17,0000.32,20.3,26.2,05.2,03.6,0680.7,31.1
2021-05-27T15:31:00Z,00000200,00000000,0002.22,0001.02,0000.38,0000.49,0000.21,0000.08,-000.09,0000.14,0000.07,20.3,26.2,05.3,03.7,0680.7,31.1
2021-05-27T15:32:00Z,00000200,00000000,0001.26,0001.14,0000.74,0000.35,0000.04,0000.23,0000.77,0000.51,0000.41,20.3,26.2,05.0,03.5,0680.8,31.1
2021-05-27T15:33:00Z,00000200,00000000,0001.21,0000.98,0000.75,0000.36,0000.21,0000.09,0000.75,0000.61,0000.81,20.3,26.2,05.1,03.6,0680.8,31.1
2021-05-27T15:34:00Z,00000200,00000000,0001.75,0000.65,0000.39,0000.31,0000.15,-000.07,0000.59,0000.77,0000.34,20.3,26.2,05.3,03.7,0680.8,31.1
2021-05-27T15:35:00Z,00000200,00000000,0001.29,0000.91,0000.75,0000.18,-000.12,-000.09,-000.39,-000.53,-000.40,20.3,26.2,05.3,03.7,0680.8,31.2
2021-05-27T15:36:00Z,00000200,00000000,0001.86,0001.12,0000.42,0000.04,0000.27,0000.12,0000.48,0000.44,0000.16,20.3,26.2,04.8,03.4,0680.8,31.1
2021-05-27T15:37:00Z,00000200,00000000,0001.54,0000.97,0000.69,0000.70,0000.10,0000.22,0000.47,0000.54,0000.61,20.3,26.2,04.8,03.4,0680.8,31.1
2021-05-27T15:38:00Z,00000200,00000000,0001.92,0000.99,0000.33,-000.09,0000.37,-000.19,0000.64,0000.89,0000.16,20.3,26.2,04.9,03.5,0680.8,31.1
2021-05-27T15:39:00Z,00000200,00000000,0001.82,0001.20,0000.38,0000.20,0000.26,-000.09,0000.50,-000.07,0000.70,20.3,26.2,05.0,03.5,0680.7,31.1
2021-05-27T15:40:00Z,00000200,00000000,0002.33,0001.14,0000.79,0000.87,0000.35,0000.24,0000.13,0000.12,0000.00,20.3,26.2,04.9,03.4,0680.6,31.1
2021-05-27T15:41:00Z,00000200,00000000,0001.31,0001.08,0000.41,0000.48,0000.22,0000.10,0000.40,0000.30,-000.35,20.3,26.2,04.6,03.3,0680.6,31.1
2021-05-27T15:42:00Z,00000200,00000000,0001.81,0000.98,0000.80,0000.44,0000.32,0000.38,0000.48,0000.53,0000.56,20.3,26.2,04.8,03.4,0680.6,31.1
2021-05-27T15:43:00Z,00000200,00000000,0002.05,0001.03,0000.81,0000.56,0000.16,-000.03,0000.93,0001.04,0000.87,20.3,26.2,05.0,03.5,0680.6,31.1
2021-05-27T15:44:00Z,00000200,00000000,0001.66,0000.76,0000.48,0000.79,0000.16,0000.28,0000.28,0000.55,0000.49,20.3,26.2,05.1,03.6,0680.6,31.1
2021-05-27T15:45:00Z,00000200,00000000,0001.22,0000.66,0000.64,0000.17,0000.09,0000.17,0000.25,-000.25,0000.10,20.3,26.2,05.0,03.5,0680.6,31.1
2021-05-27T15:46:00Z,00000200,00000000,0000.81,0001.08,0000.70,0000.65,0000.33,0000.19,0000.17,0000.17,-000.28,20.3,26.2,04.8,03.4,0680.6,31.1
2021-05-27T15:47:00Z,00000200,00000000,0002.10,0001.13,0000.63,0000.64,0000.26,0000.36,0000.16,0000.44,0000.26,20.3,26.2,04.8,03.4,0680.6,31.1
2021-05-27T15:48:00Z,00000200,00000000,0001.59,0001.13,0000.30,0000.26,0000.34,0000.12,0001.06,0000.39,0000.61,20.3,26.2,05.0,03.5,0680.7,31.2
2021-05-27T15:49:00Z,00000200,00000000,0001.77,0001.03,0000.58,-000.07,0000.17,0000.18,0000.72,0001.10,0000.96,20.3,26.2,05.1,03.6,0680.7,31.2
2021-05-27T15:50:00Z,00000200,00000000,0001.91,0000.94,0000.50,0000.26,0000.26,-000.01,0000.65,0000.49,0000.51,20.3,26.2,05.2,03.6,0680.8,31.1
2021-05-27T15:51:00Z,00000200,00000000,0001.81,0001.08,0000.54,0000.61,-000.07,0000.36,-000.17,-000.14,-000.01,20.3,26.2,05.1,03.6,0680.8,31.1
2021-05-27T15:52:00Z,00000200,00000000,0001.78,0000.86,0000.61,-000.12,0000.34,0000.24,0000.40,0000.64,-000.22,20.3,26.2,04.9,03.5,0680.7,31.1
2021-05-27T15:53:00Z,00000200,00000000,0000.93,0000.89,0000.81,0000.80,0000.14,0000.51,0000.75,0000.62,0000.66,20.3,26.2,04.9,03.4,0680.7,31.1
2021-05-27T15:54:00Z,00000200,00000000,0001.56,0000.86,0000.51,0000.38,-000.04,-000.19,0000.52,0000.33,0000.34,20.3,26.2,05.0,03.5,0680.7,31.1
2021-05-27T15:55:00Z,00000200,00000000,0001.83,0001.07,0000.59,0000.09,0000.26,0000.09,0000.51,0000.70,0000.94,20.3,26.2,05.1,03.6,0680.7,31.1
2021-05-27T15:56:00Z,00000200,00000000,0001.42,0001.22,0000.55,0000.34,0000.02,-000.27,0000.61,0000.25,-000.04,20.3,26.2,05.1,03.6,0680.6,31.1
2021-05-27T15:57:00Z,00000200,40000000,,,,,,,0000.10,0000.11,0000.24,20.3,26.2,05.6,03.9,0680.7,31.1
2021-05-27T15:58:00Z,00000200,60000000,,,,,,,-000.27,-000.21,-000.57,20.2,26.3,05.1,03.5,0679.6,31.1
2021-05-27T15:59:00Z,00000200,20000000,,,,,,,0000.01,-000.51,-000.05,20.2,26.4,04.8,03.3,0679.6,31.1
